Location: Aglistat
(46.9617°N, 8.4129°E)
Time: 14:27:25
(UTC+00:00)

Daily predictions for brighter satellites

Satellite Brightness Start Highest point End
(mag) Time Altitude Azimuth Time Altitude Azimuth Time Altitude Azimuth
Cosmos 1825 2.2 18:50:30 10° N 18:54:15 61° E 18:57:58 10° SSE
Exosat Rocket 3.8 18:51:19 10° NNW 18:57:45 77° ENE 19:02:50 10° SSE
MetOp-A 4.2 18:52:48 10° SSE 18:58:09 84° ENE 19:03:33 10° NNW
CZ-4C R/B 4.2 18:53:45 10° W 18:58:26 31° NNW 19:04:00 10° NNE
Cosmos 2227 Rocket 3.4 18:54:21 10° SSE 18:58:31 21° E 19:02:40 10° NE
Abrixas rocket 0.1 18:57:16 10° WSW 18:58:50 80° SSE 19:00:24 10° ENE
BREEZE-M DEB (TANK) 3.6 18:57:30 10° WSW 19:00:23 90° SSW 19:07:37 10° ENE
ATLAS 2AS CENTAUR R/B 3.5 18:52:33 10° SW 19:00:27 69° NW 19:08:12 10° NE
Cosmos 1092 Rocket 4.1 18:54:57 10° N 19:01:15 89° W 19:07:25 10° S
Cosmos 2058 2.9 18:59:41 10° N 19:03:53 73° E 19:08:02 10° SSE
Cosmos 2297 Rocket 2.9 19:00:08 10° SSE 19:04:59 30° ESE 19:09:52 10° NE
FALCON 9 DEB 4.2 19:03:41 10° S 19:06:01 20° SE 19:08:21 10° E
Cosmos 1633 4.0 19:03:38 10° NNE 19:06:29 21° ENE 19:09:14 10° ESE
Cosmos 405 3.8 19:03:37 10° SSW 19:07:01 55° WNW 19:10:28 10° N
Lacrosse 5 rocket 3.6 19:04:12 10° NW 19:07:24 21° N 19:10:45 10° NE
FALCON 9 DEB 3.8 19:08:03 10° SSW 19:10:38 26° SE 19:13:14 10° E
Resurs 01 Rocket 2.6 19:08:49 10° SE 19:12:43 31° ENE 19:16:39 10° N
Cosmos 2219 3.8 19:09:11 10° SSE 19:14:06 32° ESE 19:19:02 10° NE
Genesis I 4.1 19:10:30 10° NNW 19:14:15 38° NE 19:17:40 12° ESE
Resurs 1-3 3.9 19:10:08 10° SSE 19:14:22 51° ENE 19:18:38 10° N
BREEZE-M DEB (TANK) 3.6 19:11:53 10° WSW 19:15:33 82° NNW 19:28:17 10° ENE
Cosmos 2333 Rocket 3.5 19:11:05 10° NW 19:16:26 40° WSW 19:21:43 10° S
SJ-6B 2.8 19:14:36 10° S 19:18:20 82° WSW 19:22:08 10° NNW
CZ-2C R/B 4.1 19:15:50 10° N 19:20:42 41° WNW 19:25:37 10° SW
Cosmos 2084 Rocket 4.1 19:18:48 10° S 19:22:11 27° ESE 19:25:38 10° ENE
FALCON 9 DEB 3.4 19:19:51 10° SSW 19:22:39 35° SE 19:25:28 10° ENE
Cosmos 389 Rocket 2.6 19:19:21 10° S 19:22:48 53° E 19:26:18 10° NNE
ERS-2 3.3 19:19:33 10° N 19:23:04 46° WNW 19:26:32 10° SW
Ariane Rocket 3.0 19:19:43 10° SSE 19:24:45 78° ENE 19:29:50 10° NNW
Cosmos 614 Rocket 3.9 19:21:15 10° SSW 19:26:22 81° ESE 19:31:30 10° NNE
Terra 4.1 19:27:23 10° ENE 19:27:36 10° NE 19:27:49 10° NE
Cosmos 2251 Rocket 3.8 19:22:48 10° SSW 19:28:10 74° WNW 19:33:31 10° NNE
FALCON 9 DEB 4.2 19:25:59 10° W 19:29:18 46° NNW 19:32:38 10° NE
ATLAS 3B R/B 3.4 19:24:10 10° NW 19:31:02 56° WSW 19:38:09 10° SSE
Cosmos 2279 Rocket 3.9 19:26:53 10° S 19:33:01 71° E 19:39:12 10° NNE
SPOT 1/Viking Rocket 4.4 19:33:40 15° ESE 19:37:14 33° ENE 19:41:53 10° N
MOS 1 4.4 19:32:28 10° SSE 19:38:07 82° WSW 19:43:49 10° NNW
Cosmos 1980 3.7 19:33:18 10° NNW 19:39:02 88° WSW 19:44:12 13° SSE
Cosmos-2242 3.7 19:35:48 13° SSE 19:39:10 34° E 19:43:05 10° NNE
SL-16 R/B 3.0 19:34:19 10° NNW 19:39:35 37° NE 19:43:26 17° ESE
USA 215 3.8 19:34:16 10° E 19:40:32 51° NNE 19:46:49 10° NW
Cosmos 2151 3.2 19:36:47 10° N 19:41:01 53° ENE 19:44:09 17° SSE
FALCON 9 DEB 3.0 19:41:29 10° SW 19:44:25 45° SE 19:46:41 15° ENE
SPOT 3 Rocket 3.6 19:40:39 14° SSE 19:45:02 62° ENE 19:50:09 10° N
Cosmos 1455 4.4 19:43:53 10° SW 19:47:09 28° WNW 19:50:25 10° NNW
COSMOS 2455 3.5 19:43:01 10° S 19:48:12 31° ESE 19:53:24 10° NE
SL-4 R/B 2.3 19:47:07 10° SW 19:51:20 52° SE 19:55:53 10° ENE
Cosmos 2219 Rocket 4.2 19:48:46 10° NW 19:53:17 25° WSW 19:57:46 10° SSW
BREEZE M DEB (TANK) 4.2 19:51:23 10° SSW 19:54:47 36° SE 20:03:44 10° ENE
ERS-1 Rocket 4.3 19:53:54 18° E 19:56:11 25° ENE 20:00:15 10° N
IGS 5A 3.4 19:54:20 21° SSE 19:57:03 69° ENE 20:01:12 10° N
Cosmos 1076 Rocket 4.1 19:52:57 10° NNW 19:57:13 58° W 20:01:26 10° S
Cosmos 2266 Rocket 4.1 19:51:29 10° N 19:57:50 65° ENE 20:02:35 18° SSE
OBJECT-B 3.1 19:55:39 10° SSW 19:58:17 23° W 20:00:58 10° NW
Landsat 7 3.8 19:55:13 20° SSE 19:58:27 66° ENE 20:03:11 10° N
ATLAS 5 CENTAUR R/B 3.6 19:58:45 10° WSW 19:59:32 11° SW 20:00:27 10° SSW
Cosmos 2221 4.3 20:05:05 16° E 20:05:05 16° E 20:07:19 10° NE
ARIANE 5 R/B 3.3 20:04:04 26° ESE 20:05:48 38° ENE 20:09:52 10° N
Cosmos 2344 4.1 19:58:39 10° SW 20:06:00 62° NW 20:14:04 10° NE
USA 245 3.5 20:05:50 34° ESE 20:06:39 40° ENE 20:09:31 10° N
Cosmos 407 Rocket 3.5 20:01:49 10° SSW 20:06:57 84° WNW 20:12:11 10° NNE
Cosmos 1023 Rocket 4.5 20:06:56 10° SSW 20:12:01 83° WNW 20:17:09 10° NNE
MetOp-B 4.1 20:09:17 22° SSE 20:12:51 82° ENE 20:18:14 10° NNW
Meteor 2-3 Rocket 3.7 20:08:03 10° N 20:13:51 87° E 20:17:47 21° S
Cosmos 44 Rocket 3.7 20:13:48 10° S 20:18:35 44° ESE 20:23:31 10° NE
Meteor 1-27 4.3 20:14:09 16° S 20:18:46 65° E 20:24:32 10° NNE
Cosmos 1140 Rocket 3.6 20:15:07 10° SSW 20:20:14 74° WNW 20:25:24 10° NNE
Cosmos 1954 Rocket 3.9 20:19:28 11° S 20:24:19 66° ESE 20:29:27 10° NNE
CZ-2C R/B 3.5 20:20:16 10° NNE 20:24:43 82° ESE 20:27:43 21° S
Cosmos 2237 Rocket 3.2 20:21:24 10° NW 20:26:40 41° WSW 20:30:47 16° S
Timation 2 Rocket 4.0 20:20:41 10° SSW 20:27:17 86° WNW 20:33:36 10° NNE
Cosmos 2263 Rocket 3.6 20:34:38 20° E 20:34:38 20° E 20:37:29 10° NE
Spot 2 Rocket 3.4 20:32:07 36° SSE 20:34:14 77° ENE 20:39:19 10° NNW
CARTOSAT-1 3.6 20:33:28 46° SE 20:34:31 62° ENE 20:38:48 10° N
Cosmos 1766 Rocket 3.4 20:30:44 10° N 20:35:05 81° E 20:36:22 46° SSE
BREEZE M DEB (TANK) 2.6 20:28:11 10° WSW 20:35:20 73° NNW 20:36:34 34° ENE
Cosmos 1633 4.5 20:38:11 10° NNW 20:41:13 26° W 20:43:20 15° SW
FALCON 9 DEB 3.2 20:38:32 10° WSW 20:41:34 62° NNW 20:41:38 62° NNW
Cosmos 2227 Rocket 2.6 20:36:25 10° SW 20:42:02 65° WNW 20:47:41 10° NNE
Cosmos 2082 3.6 20:37:15 14° SSW 20:42:08 72° ESE 20:47:45 10° NNE
Okean 3 Rocket 3.6 20:39:43 10° N 20:44:16 82° W 20:45:39 45° S
FALCON 9 DEB 3.6 20:43:15 10° W 20:46:13 50° NNW 20:46:28 48° N
Lacrosse 5 rocket 3.2 20:43:57 10° NW 20:47:39 28° NNE 20:49:58 18° ENE
Cosmos 2297 Rocket 3.2 20:43:22 10° SW 20:48:49 47° NW 20:54:17 10° NNE
Cosmos 1869 3.3 20:47:58 47° SSW 20:49:02 76° W 20:52:59 10° N
Resurs 01 Rocket 3.2 20:46:10 15° SSW 20:49:12 30° W 20:53:08 10° NNW
Cosmos 1553 Rocket 4.4 20:48:26 36° ESE 20:49:33 40° E 20:55:10 10° NNE
Cosmos 468 Rocket 3.9 20:45:18 10° NNW 20:50:28 75° ENE 20:51:46 50° SE
Meteor 1-4 Rocket 2.5 20:50:30 71° WSW 20:50:41 74° WNW 20:54:14 10° N
NOSS 3-1 (A) 4.5 20:46:04 10° NW 20:53:09 53° NE 20:57:37 28° ESE
Cosmos 841 Rocket 4.1 20:50:19 10° N 20:55:14 41° ENE 20:56:15 37° E
Cosmos 2219 4.3 20:52:44 10° SW 20:58:06 44° NW 21:03:29 10° NNE
FALCON 9 DEB 4.1 20:55:25 10° W 20:58:12 41° NNW 20:58:12 41° NNW
Cosmos 1763 Rocket 3.3 20:58:12 10° NNW 21:03:19 89° WSW 21:04:17 59° SSE
Terra 1.8 21:03:52 60° ESE 21:04:25 66° ENE 21:09:10 10° N
Cosmos 540 Rocket 3.5 21:06:00 10° NNW 21:11:06 60° ENE 21:11:41 56° E
Cosmos 921 Rocket 3.8 21:08:20 10° N 21:12:21 40° ENE 21:12:21 40° ENE
SPOT 5 2.8 21:14:08 63° SSW 21:14:46 73° WSW 21:19:36 10° NNW
NOSS 3-1 (C) 4.0 21:09:40 10° NW 21:17:09 89° NE 21:20:23 43° SE
Meteor 2-2 Rocket 4.1 21:15:41 51° S 21:17:13 84° E 21:22:57 10° NNE
Cosmos 1842 Rocket 3.5 21:20:26 88° W 21:20:26 88° W 21:24:57 10° N
USA 215 3.2 21:21:35 50° SSE 21:23:24 72° SW 21:29:57 10° NW
SL-16 R/B 3.1 21:18:28 10° NW 21:23:45 41° WSW 21:25:19 34° SW
SL-08 ROCKET BODY 4.3 21:24:25 10° N 21:30:31 89° E 21:31:36 62° S
SL-4 R/B 2.8 21:26:37 10° W 21:31:04 58° NNW 21:33:32 26° NE
COSMOS 2455 3.5 21:27:59 10° SW 21:33:52 54° NW 21:39:47 10° NNE
ERS-1 Rocket 3.5 21:33:53 43° SW 21:34:42 48° W 21:39:35 10° NNW
Cosmos 1408 Rocket 4.2 21:30:36 10° NNW 21:34:44 46° W 21:34:52 46° W
Cosmos 2227 4.2 21:40:44 63° E 21:40:44 63° E 21:46:09 10° NNE
Cosmos 2221 3.1 21:41:54 51° WNW 21:41:54 51° WNW 21:46:04 10° N
Cosmos 1862 4.4 21:38:13 10° NNW 21:41:30 41° WNW 21:41:30 41° WNW
ARIANE 5 R/B 4.3 21:41:36 23° WSW 21:42:21 24° W 21:45:57 10° NW
Sich 1 4.0 21:38:20 10° N 21:41:28 39° NE 21:41:28 39° NE
Cosmos 1805 Rocket 4.1 21:38:30 10° N 21:41:58 50° NNE 21:41:58 50° NNE
Meteor 1-20 Rocket 4.5 21:42:09 10° N 21:47:50 55° ENE 21:48:01 55° E
Cosmos 1943 3.0 21:44:13 10° NNW 21:49:53 85° ENE 21:50:06 82° ESE
Cosmos 1745 Rocket 3.8 21:46:17 10° N 21:52:37 89° W 21:53:25 70° S
SeaSat 1 3.7 21:48:35 10° NE 21:51:19 29° ENE 21:51:19 29° ENE
Cosmos 1570 Rocket 3.9 21:48:04 10° NNW 21:53:15 84° NNE 21:53:15 84° NNE
Cosmos 1743 Rocket 4.2 21:49:23 10° NNW 21:53:02 50° WNW 21:53:02 50° WNW
Cosmos 1709 Rocket 4.0 21:51:39 10° N 21:57:49 61° ENE 21:58:09 60° E
Spot 4 4.5 22:00:15 49° NE 22:00:15 49° NE 22:04:26 10° N
Cosmos 1633 Rocket 4.4 21:59:19 10° N 22:02:12 32° NE 22:02:12 32° NE
Cosmos 1606 4.4 22:06:55 32° NNW 22:06:55 32° NNW 22:09:12 10° N
S3M 4.0 22:05:24 66° SSW 22:06:21 81° W 22:12:48 10° N
Cosmos 883 Rocket 4.4 22:06:43 68° ESE 22:06:50 69° E 22:13:06 10° NNE
Cosmos 2263 Rocket 2.4 22:16:15 61° W 22:16:48 65° WNW 22:22:22 10° NNE
Aureole 1 Rocket 4.3 22:17:34 39° W 22:18:37 44° WNW 22:22:59 10° N
USA 229 DEB 4.0 22:19:10 10° NW 22:26:20 58° WSW 22:27:01 56° SW
USA 229 4.0 22:19:15 10° NW 22:26:26 58° WSW 22:27:08 56° SW
Lacrosse 5 rocket 2.8 22:22:55 10° NW 22:25:35 37° NW 22:25:35 37° NW
Cosmos 1844 Rocket 3.9 22:30:56 29° ENE 22:30:56 29° ENE 22:34:10 10° NE
Cosmos 1151 Rocket 4.5 22:34:17 33° NNE 22:34:17 33° NNE 22:36:47 10° NNE
ALOS 2 3.8 22:35:37 40° NNE 22:35:37 40° NNE 22:38:36 10° N
Terra 4.0 22:42:44 16° W 22:42:44 16° W 22:45:34 10° NW
NOSS 3-1 (A) 4.3 22:36:59 10° NW 22:44:21 52° WSW 22:45:03 51° SW
Meteor 1-5 Rocket 4.4 22:56:28 10° N 23:01:31 64° NNE 23:01:31 64° NNE
Cosmos 2154 Rocket 4.4 22:57:47 10° N 23:03:59 51° ENE 23:04:10 51° E
Meteor 1-14 Rocket 4.4 22:59:05 10° NNW 23:04:37 74° NW 23:04:37 74° NW
SL-4 R/B 4.0 23:06:46 10° WNW 23:09:09 28° NW 23:09:09 28° NW
NOSS 2-2 (C) 4.4 23:09:41 10° NW 23:14:35 77° NW 23:14:35 77° NW
Cosmos 2184 Rocket 3.9 23:08:48 10° N 23:14:58 84° NNE 23:14:58 84° NNE
SJ 16-02 4.1 23:17:22 10° ENE 23:17:22 10° ENE 23:17:27 10° ENE
Cosmos 2278 Rocket 4.2 23:19:29 16° E 23:19:29 16° E 23:21:52 10° ENE
ATLAS 5 CENTAUR R/B 3.4 23:19:47 10° NNW 23:24:51 39° NE 23:27:06 29° E
SeaSat 1 3.7 23:26:17 10° NNE 23:30:42 34° NW 23:31:05 33° WNW
Cosmos 1241 Rocket 4.5 23:33:02 84° ENE 23:33:02 84° ENE 23:39:31 10° NE
Cosmos 1844 3.9 23:41:39 70° N 23:41:39 70° N 23:46:51 10° NNE
Cosmos 2074 Rocket 4.2 23:35:22 10° NNW 23:41:12 59° WNW 23:41:12 59° WNW
USA 281 3.1 23:43:08 71° ESE 23:43:45 77° ENE 23:50:21 10° NNW
COSMOS 2406 4.1 23:38:41 10° NNW 23:44:05 43° NE 23:44:55 40° ENE
Gbstr 26 Del rocket 4.3 23:53:47 52° E 23:53:47 52° E 23:58:00 10° ENE
